Bookmark and Share
Track history (hours):
 

Hakozaki Maru

Last reported at 2014-Apr-23 07:03 UTC. Time now 2014-Apr-24 04:05 UTC.
Position N 34°41' E 135°14'.

Length 31 m; draft 2.5 m.

Type: Tug. MMSI: 431000322.

NotesDate/timePositionNaut miles runAvg speedWind from/ knotsBaromVisibWave heightAir tempDewpointWater temp
2014-Apr-23 07:03N 34°41' E 135°14'0 0.6
2014-Apr-23 06:33N 34°40' E 135°14'0 0.4
2014-Apr-23 05:33N 34°41' E 135°14'1 1.4
2014-Apr-23 04:33N 34°41' E 135°12'0 0.0
2014-Apr-23 03:33N 34°41' E 135°12'0 0.0
2014-Apr-23 02:33N 34°41' E 135°12'0 0.0
2014-Apr-23 01:33N 34°41' E 135°12'0 0.0
2014-Apr-23 00:33N 34°41' E 135°12'4 3.8
2014-Apr-22 23:33N 34°42' E 135°17'0 0.5
2014-Apr-22 22:33N 34°42' E 135°17'1 0.5
2014-Apr-22 21:33N 34°42' E 135°18'5 4.7
2014-Apr-22 20:33N 34°41' E 135°12'4 0.3
2014-Apr-22 07:25N 34°42' E 135°17'4 4.3
2014-Apr-22 06:33N 34°41' E 135°12'0 0.0
2014-Apr-22 05:33N 34°41' E 135°12'0 0.0
2014-Apr-22 04:33N 34°41' E 135°12'0 0.0
2014-Apr-22 03:33N 34°41' E 135°12'0 0.0
2014-Apr-22 02:33N 34°41' E 135°12'0 0.0
2014-Apr-22 01:33N 34°41' E 135°12'0 0.0
2014-Apr-22 00:33N 34°41' E 135°12'0 0.0
2014-Apr-21 23:33N 34°41' E 135°12'0 0.0
2014-Apr-21 22:33N 34°41' E 135°12'2 0.1
2014-Apr-20 18:33N 34°40' E 135°14'2 1.8
2014-Apr-20 17:33N 34°41' E 135°12'0 0.1
2014-Apr-20 16:33N 34°41' E 135°12'0 0.0
2014-Apr-20 15:33N 34°41' E 135°12'0 0.0
2014-Apr-20 14:33N 34°41' E 135°12'0 0.0
2014-Apr-20 13:33N 34°41' E 135°12'0 0.0
2014-Apr-20 12:33N 34°41' E 135°12'0 0.0
2014-Apr-20 11:33N 34°41' E 135°12'2 2.4
2014-Apr-20 10:33N 34°41' E 135°15'2 2.4
2014-Apr-20 09:33N 34°41' E 135°12'0 0.0
2014-Apr-20 08:33N 34°41' E 135°12'0 0.0
2014-Apr-20 07:33N 34°41' E 135°12'0 0.0
2014-Apr-20 06:33N 34°41' E 135°12'2 2.3
2014-Apr-20 05:33N 34°40' E 135°15'2 2.3
2014-Apr-20 04:33N 34°41' E 135°12'0 0.0
2014-Apr-20 03:33N 34°41' E 135°12'0 0.0
2014-Apr-20 02:33N 34°41' E 135°12'0 0.0
2014-Apr-20 01:33N 34°41' E 135°12'0 0.0
2014-Apr-20 00:33N 34°41' E 135°12'0 0.0
2014-Apr-19 23:33N 34°41' E 135°12'3 2.9
2014-Apr-19 22:33N 34°41' E 135°16'0 0.4
2014-Apr-19 21:33N 34°41' E 135°16'2 0.1
2014-Apr-19 04:32N 34°41' E 135°14'1 0.8
2014-Apr-19 03:33N 34°41' E 135°13'1 0.6
2014-Apr-19 02:33N 34°41' E 135°12'0 0.0
2014-Apr-19 01:33N 34°41' E 135°12'0 0.0
2014-Apr-19 00:33N 34°41' E 135°12'0 0.0
2014-Apr-18 23:32N 34°41' E 135°12'4 4.1
2014-Apr-18 22:33N 34°41' E 135°17'1 0.9
2014-Apr-18 21:33N 34°41' E 135°16'3 3.2
2014-Apr-18 20:33N 34°41' E 135°12'2 0.2
2014-Apr-18 08:11N 34°42' E 135°15'0 0.6
2014-Apr-18 07:33N 34°42' E 135°15'1 0.6
2014-Apr-18 06:33N 34°41' E 135°14'1 1.2
2014-Apr-18 05:33N 34°42' E 135°15'3 2.8
2014-Apr-18 04:33N 34°41' E 135°12'0 0.0
2014-Apr-18 03:33N 34°41' E 135°12'0 0.0
2014-Apr-18 02:33N 34°41' E 135°12'0 0.0
2014-Apr-18 01:33N 34°41' E 135°12'0 0.0
2014-Apr-18 00:33N 34°41' E 135°12'3 2.8
2014-Apr-17 23:33N 34°42' E 135°15'1 1.0
2014-Apr-17 22:33N 34°41' E 135°15'1 0.7
2014-Apr-17 21:33N 34°41' E 135°14'2 1.5
2014-Apr-17 20:33N 34°41' E 135°12'2 0.1
2014-Apr-16 10:03N 34°40' E 135°14'0 0.3
2014-Apr-16 09:33N 34°40' E 135°14'2 2.0
2014-Apr-16 08:33N 34°41' E 135°12'0 0.0
2014-Apr-16 07:33N 34°41' E 135°12'0 0.0
2014-Apr-16 06:33N 34°41' E 135°12'0 0.0
2014-Apr-16 05:33N 34°41' E 135°12'0 0.0
2014-Apr-16 04:33N 34°41' E 135°12'0 0.0
2014-Apr-16 03:33N 34°41' E 135°12'0 0.0
2014-Apr-16 02:33N 34°41' E 135°12'0 0.0
2014-Apr-16 01:33N 34°41' E 135°12'0 0.0
2014-Apr-16 00:33N 34°41' E 135°12'0 0.0
2014-Apr-15 23:33N 34°41' E 135°12'1 1.0
2014-Apr-15 22:33N 34°40' E 135°13'2 1.7
2014-Apr-15 21:33N 34°40' E 135°15'3 2.6
2014-Apr-15 20:33N 34°41' E 135°12'2 0.1
2014-Apr-15 05:34N 34°40' E 135°14'2 1.0
2014-Apr-15 03:34N 34°41' E 135°12'0 0.0
2014-Apr-15 02:34N 34°41' E 135°12'0 0.0
2014-Apr-15 01:34N 34°41' E 135°12'0 0.0
2014-Apr-15 00:34N 34°41' E 135°12'0 0.1
2014-Apr-14 23:33N 34°41' E 135°12'5 4.8
2014-Apr-14 22:34N 34°42' E 135°18'1 0.8
2014-Apr-14 21:34N 34°42' E 135°18'2 1.9
2014-Apr-14 20:34N 34°41' E 135°16'3 3.3
2014-Apr-14 19:34N 34°41' E 135°12'1 0.1
2014-Apr-14 08:34N 34°41' E 135°13'0 0.4
2014-Apr-14 07:33N 34°41' E 135°13'0 0.3
2014-Apr-14 06:33N 34°41' E 135°12'0 0.0
2014-Apr-14 05:33N 34°41' E 135°12'1 0.2
2014-Apr-13 22:33N 34°41' E 135°14'1 1.4
2014-Apr-13 21:34N 34°40' E 135°15'3 2.6
2014-Apr-13 20:33N 34°41' E 135°12'  

Dump ship's entire track history

sailing weather and tide predictions

Hakozaki Maru — JJ3662 — position and weather